IZ2OSD Weather Reports


time (UTC)temp
C
wind
direction
speed
KPH
gust
KPH
rain 1hr
cm
rain 24hr
cm
rain mn
cm
humidity
%
barometer
mb
20260510173410 13 315 6.4 9.7 0.00 0.46 0.46 92 1010.7
20260510172406 13 315 4.8 6.4 0.00 0.46 0.46 91 1011.0
20260510171402 13 315 3.2 9.7 0.00 0.46 0.46 90 1011.1
20260510170352 13 22 1.6 4.8 0.00 0.46 0.46 90 1010.7
20260510165409 13 292 3.2 6.4 0.03 0.46 0.46 90 1011.0
20260510164345 13 315 1.6 3.2 0.03 0.46 0.46 90 1011.3
20260510163402 13 315 1.6 4.8 0.03 0.46 0.46 89 1011.2
20260510162338 13 315 1.6 4.8 0.03 0.46 0.46 88 1011.4
20260510161329 14 315 3.2 4.8 0.03 0.46 0.46 88 1011.3
20260510160325 14 0.0 1.6 0.03 0.46 0.46 87 1011.4
20260510155322 14 315 3.2 4.8 0.00 0.43 0.43 86 1011.7
20260510154318 14 0 0.0 3.2 0.00 0.43 0.43 85 1011.4
20260510153355 15 315 1.6 4.8 0.00 0.43 0.43 83 1011.6
20260510152308 15 315 1.6 4.8 0.00 0.43 0.43 81 1011.4
20260510151303 15 337 1.6 4.8 0.00 0.43 0.43 80 1011.6
20260510150257 15 315 3.2 6.4 0.00 0.43 0.43 79 1011.6
20260510145314 15 315 6.4 12.9 0.00 0.43 0.43 79 1012.0
20260510144250 15 315 1.6 3.2 0.00 0.43 0.43 79 1012.0
20260510143244 15 292 3.2 6.4 0.00 0.43 0.43 78 1011.6
20260510142241 15 315 4.8 9.7 0.00 0.43 0.43 79 1011.8
20260510141234 15 315 8.0 12.9 0.00 0.43 0.43 81 1011.8
20260510140257 15 315 3.2 6.4 0.00 0.43 0.43 83 1012.0
20260510135248 15 315 1.6 6.4 0.00 0.43 0.43 83 1011.9
20260510134237 15 90 4.8 6.4 0.00 0.43 0.43 83 1012.3
20260510133222 15 337 1.6 3.2 0.00 0.43 0.43 85 1012.7
20260510132203 15 315 3.2 12.9 0.00 0.43 0.43 85 1012.2
20260510131202 14 315 1.6 4.8 0.00 0.43 0.43 85 1012.2
20260510130150 14 315 1.6 6.4 0.00 0.43 0.43 86 1012.4
20260510125142 13 315 6.4 9.7 0.00 0.43 0.43 87 1012.5
20260510124138 13 337 3.2 9.7 0.00 0.43 0.43 88 1012.6
20260510123132 13 315 1.6 4.8 0.00 0.43 0.43 88 1012.7
20260510122131 13 337 1.6 4.8 0.00 0.43 0.43 87 1012.8
20260510121119 13 315 6.4 14.5 0.03 0.43 0.43 87 1013.3
20260510120114 13 337 3.2 9.7 0.03 0.43 0.43 88 1013.0
20260510115106 13 315 4.8 12.9 0.05 0.43 0.43 89 1012.9
20260510114102 13 90 1.6 4.8 0.05 0.43 0.43 89 1013.2
20260510113058 14 315 1.6 6.4 0.10 0.43 0.43 88 1013.0
20260510112053 14 337 4.8 9.7 0.18 0.43 0.43 90 1013.2
20260510111050 13 315 3.2 9.7 0.13 0.41 0.41 92 1013.4
20260510110107 14 315 3.2 4.8 0.13 0.41 0.41 94 1013.0
20260510105044 14 315 1.6 4.8 0.10 0.38 0.38 94 1013.2
20260510104040 14 315 1.6 4.8 0.10 0.38 0.38 94 1013.3
20260510103030 14 315 1.6 4.8 0.05 0.30 0.30 94 1013.4
20260510102026 15 315 1.6 3.2 0.00 0.25 0.25 94 1013.5
20260510100645 14 315 1.6 3.2 0.05 0.25 0.25 94 1013.4
20260510094813 14 0.0 3.2 0.13 0.25 0.25 94 1013.6
20260510093804 14 315 3.2 4.8 0.13 0.25 0.25 94 1013.6
20260510091920 14 315 0.0 3.2 0.18 0.23 0.23 94 1013.5
20260510090915 14 315 8.0 12.9 0.13 0.20 0.20 93 1013.7
20260510085913 15 315 1.6 3.2 0.10 0.18 0.18 92 1013.4
20260510084909 15 0.0 1.6 0.05 0.10 0.10 91 1013.5
20260510083909 15 315 3.2 3.2 0.08 0.10 0.10 90 1013.5
20260510082903 15 0.0 0.0 0.05 0.08 0.08 90 1013.6
20260510081901 15 0.0 0.0 0.03 0.05 0.05 90 1013.5
20260510080856 15 0.0 0.0 0.03 0.05 0.05 90 1013.4
20260510075854 15 0.0 0.0 0.03 0.05 0.05 90 1013.5
20260510074850 15 0.0 0.0 0.03 0.05 0.05 89 1013.5
20260510073846 15 0.0 0.0 0.00 0.03 0.03 88 1013.4
20260510072843 15 0.0 0.0 0.00 0.03 0.03 88 1013.4
20260510071837 15 0.0 0.0 0.00 0.03 0.03 87 1013.0
20260510070834 15 0.0 0.0 0.00 0.03 0.03 88 1013.0
20260510065832 15 0.0 0.0 0.00 0.03 0.03 88 1012.9
20260510064827 15 0.0 0.0 0.00 0.03 0.03 87 1012.9
20260510063824 15 0.0 0.0 0.00 0.03 0.03 87 1012.9
20260510062841 15 0.0 0.0 0.03 0.03 0.03 86 1012.8
20260510061817 15 0.0 0.0 0.03 0.03 0.03 86 1012.8
20260510060807 15 0.0 0.0 0.03 0.03 0.03 86 1012.9
20260510055803 15 315 1.6 3.2 0.03 0.03 0.03 85 1012.7
20260510054800 15 292 0.0 3.2 0.03 0.03 0.03 85 1012.6
20260510053757 15 292 0.0 1.6 0.03 0.03 0.03 82 1012.8
20260510052754 15 292 0.0 1.6 0.00 0.00 0.00 80 1012.4
20260510051750 16 292 0.0 1.6 0.00 0.00 0.00 77 1012.3
20260510050740 16 0.0 0.0 0.00 0.00 0.00 76 1012.0
20260510045730 16 0.0 0.0 0.00 0.00 0.00 76 1011.9
20260510044726 16 0.0 0.0 0.00 0.00 0.00 76 1011.9
20260510043716 15 0.0 0.0 0.00 0.00 0.00 77 1011.8
20260510042708 15 0.0 0.0 0.00 0.00 0.00 77 1011.7
20260510041703 15 292 0.0 1.6 0.00 0.00 0.00 77 1011.6
20260510040658 15 292 0.0 1.6 0.00 0.00 0.00 77 1011.7
20260510035714 15 292 1.6 3.2 0.00 0.00 0.00 78 1011.9
20260510034651 16 0.0 0.0 0.00 0.00 0.00 78 1011.8
20260510033642 16 0.0 1.6 0.00 0.00 0.00 76 1011.9
20260510032638 16 0.0 0.0 0.00 0.00 0.00 76 1011.9
20260510031635 16 0.0 0.0 0.00 0.00 0.00 71 1012.1
20260510030633 16 0.0 0.0 0.00 0.00 0.00 70 1012.3
20260510025627 16 0.0 0.0 0.00 0.00 0.00 69 1012.1
20260510024624 16 0.0 0.0 0.00 0.00 0.00 68 1012.2
20260510023621 16 0.0 0.0 0.00 0.00 0.00 68 1012.2
20260510022617 16 292 1.6 3.2 0.00 0.00 0.00 68 1012.4
20260510021607 16 292 0.0 3.2 0.00 0.00 0.00 68 1012.4
20260510020604 16 292 3.2 4.8 0.00 0.00 0.00 68 1012.5
20260510015600 16 292 1.6 3.2 0.00 0.00 0.00 68 1012.9
20260510014638 16 292 1.6 4.8 0.00 0.00 0.00 67 1012.8
20260510013553 16 315 1.6 3.2 0.00 0.00 0.00 67 1012.8
20260510012551 16 292 0.0 3.2 0.00 0.00 0.00 67 1012.9
20260510011541 16 292 3.2 4.8 0.00 0.00 0.00 68 1012.8
20260510010537 16 292 0.0 3.2 0.00 0.00 0.00 68 1012.9
20260510005533 16 292 1.6 3.2 0.00 0.00 0.00 68 1013.4
20260510004529 16 0.0 0.0 0.00 0.00 0.00 68 1013.2
20260510003539 16 315 3.2 6.4 0.00 0.00 0.00 68 1013.2
20260510002515 17 292 3.2 4.8 0.00 0.00 0.00 68 1013.0
20260510001511 17 315 1.6 4.8 0.00 0.00 0.00 68 1013.5
20260510000508 17 315 1.6 4.8 0.00 0.00 0.00 68 1013.4
20260509235504 17 292 3.2 6.4 0.00 0.00 0.00 67 1013.9
20260509234503 17 292 3.2 4.8 0.00 0.00 0.00 68 1013.7
20260509234000 17 292 4.8 6.4 0.00 0.00 0.00 68 1013.8
20260509232958 16 315 3.2 4.8 0.00 0.00 0.00 69 1013.8
20260509231953 16 315 1.6 4.8 0.00 0.00 0.00 69 1013.7
20260509230950 16 315 4.8 6.4 0.00 0.00 0.00 70 1013.7
20260509225946 16 292 1.6 4.8 0.00 0.00 0.00 70 1013.8
20260509224943 16 292 0.0 1.6 0.00 0.00 0.00 71 1013.6
20260509223941 16 292 1.6 3.2 0.00 0.00 0.00 70 1013.8
20260509222930 16 0.0 1.6 0.00 0.00 0.00 70 1013.8
20260509222007 16 0.0 0.0 0.00 0.00 0.00 69 1013.9
20260509221042 16 0.0 0.0 0.00 0.00 0.00 69 1013.8
20260509215940 17 0.0 0.0 0.00 0.00 0.00 68 1013.9
20260509214915 17 0.0 0.0 0.00 0.00 0.00 68 1013.8
20260509213906 17 0.0 0.0 0.00 0.00 0.00 68 1013.7
20260509212903 17 0.0 0.0 0.00 0.00 0.00 66 1013.7
20260509211856 17 0.0 0.0 0.00 0.00 0.00 66 1013.6
20260509210853 17 270 1.6 3.2 0.00 0.00 0.00 66 1013.7
20260509205850 17 0.0 1.6 0.00 0.00 0.00 66 1013.4
20260509204841 17 0.0 0.0 0.00 0.00 0.00 68 1013.6
20260509203838 17 0.0 0.0 0.00 0.00 0.00 67 1013.5
20260509202829 18 0.0 0.0 0.00 0.00 0.00 65 1013.5
20260509201824 18 0.0 0.0 0.00 0.00 0.00 65 1013.4
20260509200820 18 0.0 0.0 0.00 0.00 0.00 65 1013.3
20260509195818 18 0.0 0.0 0.00 0.00 0.00 65 1013.3
20260509194814 18 0.0 0.0 0.00 0.00 0.00 63 1013.0
20260509193811 19 0.0 0.0 0.00 0.00 0.00 64 1013.0
20260509192808 20 0.0 0.0 0.00 0.00 0.00 63 1012.9
20260509191803 20 0.0 0.0 0.00 0.00 0.00 60 1012.8
20260509190754 20 0.0 0.0 0.00 0.00 0.00 58 1012.6
20260509185750 21 0.0 0.0 0.00 0.00 0.00 52 1012.7
20260509184747 21 0.0 0.0 0.00 0.00 0.00 52 1012.7
20260509183743 21 0.0 0.0 0.00 0.00 0.00 52 1012.8
20260509182739 21 0.0 0.0 0.00 0.00 0.00 50 1012.7
20260509181729 21 0.0 0.0 0.00 0.00 0.00 50 1012.9
20260509180726 22 0.0 0.0 0.00 0.00 0.00 49 1012.7
20260509175737 22 0.0 0.0 0.00 0.00 0.00 47 1012.8
20260509174714 22 0.0 0.0 0.00 0.00 0.00 46 1012.4